Location: *
(52.2090°N, 4.1550°W)
Time: 15:10:59
(UTC+00:00)

Meteor 1-27 Rocket - Pass Details

Date: 19 July 2019
Orbit: 831 x 908 km, 81.3° (Epoch: 22 August)

Event Time Altitude Azimuth Distance (km) Brightness Sun altitude
Rises 23:01:00 0° 347° (NNW) 3,510 8.8 -14.9°
Reaches altitude 10° 23:03:27 10° 348° (NNW) 2,576 7.6 -15.0°
Maximum altitude 23:09:22 86° 76° (ENE) 912 3.8 -15.3°
Enters shadow 23:13:12 23° 166° (SSE) 1,816 4.8 -15.5°
